Wind_Speed
18 20 21 21 18 14 13 14 14 16 16 16 15 13 12 8 6 4 3 2 2 2 3 5 7 9 10 12 13 14 14 14 15 16 17 17 18 19 21 21 20 22 26 22
15 16 18 19 19 16 13 10 10 9 10 11 12 12 12 11 9 7 4 2 1 2 3 5 6 8 10 12 13 13 14 13 14 15 17 18 19 21 23 25 25 26 33 29
12 16 16 17 17 17 15 13 10 10 9 9 8 8 8 8 8 7 7 5 3 2 3 4 6 7 9 12 13 14 15 16 18 19 19 20 21 25 29 31 33 36 33 36
16 15 17 18 17 16 15 14 16 15 12 11 12 12 11 11 10 9 8 8 8 8 8 9 10 11 13 15 16 17 17 17 18 21 22 23 22 26 29 31 34 38 36 36
20 20 19 20 19 18 15 15 15 16 20 20 18 17 16 16 16 15 16 16 15 14 15 15 15 16 16 18 20 21 22 22 20 21 23 24 24 29 32 34 36 40 41 35
27 26 26 24 23 21 18 18 19 21 21 22 24 23 23 23 23 21 20 20 21 20 21 21 21 22 23 23 23 24 24 25 25 24 24 23 26 28 32 34 36 40 38 37
36 35 31 30 29 28 26 24 27 28 27 25 24 26 26 25 25 26 26 26 25 25 26 26 26 26 27 27 29 30 30 31 31 30 31 26 29 33 34 34 34 39 37 37
45 39 38 36 33 32 32 31 27 27 28 29 28 28 28 28 28 28 29 30 30 31 31 30 30 31 32 32 31 33 34 36 38 37 37 33 28 38 36 40 31 40 40 39
48 43 41 42 40 38 36 35 34 33 32 32 34 34 33 33 33 31 32 34 35 35 36 37 36 35 35 36 35 36 37 39 39 42 44 43 37 38 45 46 44 44 43 41
49 48 48 47 46 44 43 41 39 38 36 35 36 36 38 40 40 38 36 38 38 39 39 38 38 38 39 40 39 41 41 44 45 46 48 47 47 51 50 51 52 52 53 54
57 56 56 53 50 50 49 48 46 46 46 43 41 43 42 42 45 46 43 42 39 41 41 41 42 42 41 41 41 41 40 42 44 46 49 51 51 53 54 54 55 57 57 59
61 59 60 59 58 56 56 59 55 53 51 50 51 48 47 47 47 47 50 49 46 47 47 47 48 50 48 46 44 43 45 44 49 52 52 52 53 57 59 59 57 59 60 59
72 68 66 65 65 65 62 61 61 58 58 55 53 53 52 51 51 51 48 49 52 50 50 49 49 51 51 50 50 50 50 53 54 53 51 48 53 58 60 61 60 59 58 59
66 66 66 66 68 67 66 64 67 60 61 61 53 54 56 53 51 52 53 52 52 52 52 52 54 54 56 56 56 55 55 54 50 54 49 54 59 60 60 61 62 62 64 65
64 64 67 62 64 65 65 65 64 59 58 60 57 57 57 54 53 53 52 53 54 56 59 60 59 59 61 60 61 60 57 49 52 58 51 63 63 60 60 62 65 64 66 67
67 65 65 65 63 62 62 62 63 61 61 64 64 58 59 61 60 59 58 58 57 58 61 63 64 62 64 65 65 62 52 52 56 63 62 60 60 62 67 68 69 70 70 70
77 75 75 74 74 70 69 71 72 71 70 71 70 68 61 60 60 62 60 60 62 62 64 65 68 69 69 70 70 59 57 61 67 65 66 67 69 72 71 72 72 73 74 75
88 86 83 83 81 81 79 78 78 79 80 81 77 72 70 69 73 66 63 61 63 65 64 66 67 67 69 75 66 62 62 66 66 67 69 74 75 75 75 76 75 75 76 76
80 83 86 86 85 85 84 85 81 76 76 77 81 80 77 74 71 68 67 64 63 65 69 68 68 69 73 69 68 69 69 69 69 70 71 72 74 75 75 76 76 76 76 75
78 79 79 79 77 79 81 80 79 81 79 78 79 76 76 75 75 73 70 71 72 74 73 75 75 74 68 69 68 66 66 68 69 72 73 71 72 72 73 74 76 76 75 73
76 77 76 76 76 75 76 75 76 78 81 83 76 73 69 67 67 66 67 68 71 72 73 75 76 73 70 70 69 70 70 71 71 71 72 73 72 73 72 71 70 70 69 67
74 77 78 76 73 71 70 70 71 74 72 71 69 64 62 62 62 62 65 66 69 72 72 72 74 68 67 67 70 73 73 73 74 73 74 74 73 72 70 71 69 67 64 67
61 64 68 68 68 70 70 71 67 60 60 58 55 56 58 57 58 60 63 67 69 69 70 70 70 67 69 71 72 73 75 76 76 75 71 70 69 67 65 65 63 63 62 65
51 54 55 55 56 64 64 60 58 63 58 51 48 38 54 58 61 64 63 63 66 64 68 69 69 69 70 73 74 76 74 75 75 72 68 63 62 64 65 64 66 69 70 69
43 51 52 56 55 54 53 50 48 48 49 53 56 55 50 46 50 61 61 60 63 66 65 62 63 62 68 71 70 70 70 69 69 69 70 70 69 69 69 69 71 72 74 76
40 41 39 41 37 37 38 38 40 43 41 41 43 48 51 52 54 58 60 63 64 61 61 60 62 64 67 67 66 64 63 64 66 68 69 70 69 68 68 68 67 67 68 69
47 44 42 33 34 37 38 37 34 32 31 33 33 36 38 41 48 55 54 56 56 57 59 61 61 60 59 59 60 62 63 64 65 66 67 68 67 66 66 65 63 64 63 62
Wind_Direction
14 15 17 22 24 33 39 39 44 46 48 53 54 58 62 71 76 80 90 103 147 224 253 259 261 267 269 271 276 279 282 281 277 276 278 278 278 278 279 278 277 280 281 287
351 357 359 2 5 12 13 19 19 23 27 29 31 35 39 42 48 54 54 46 326 265 260 266 271 275 277 281 286 289 290 287 284 281 281 281 283 282 281 281 283 286 283 295
328 334 345 352 350 349 352 351 353 349 345 347 348 354 1 1 4 7 10 12 9 347 331 317 314 314 312 311 307 305 302 298 295 289 287 287 289 291 290 291 292 285 293 285
298 306 317 325 334 334 330 333 330 327 324 322 320 318 316 312 308 304 306 309 313 313 313 316 313 315 316 317 318 314 311 314 314 307 304 301 301 294 292 291 289 289 290 294
287 291 296 301 310 313 310 311 310 312 313 310 307 304 303 299 296 295 295 293 291 289 291 293 294 297 304 308 312 313 312 315 313 315 312 314 312 303 300 299 299 296 294 298
281 281 285 285 291 296 295 290 296 299 295 294 291 292 295 295 295 293 289 288 287 287 284 283 285 288 292 294 296 298 299 301 299 302 299 306 302 300 301 302 302 302 302 302
278 280 278 279 279 284 284 285 289 296 294 283 281 277 279 280 280 283 287 288 285 286 285 285 286 287 288 291 295 298 299 298 300 297 298 297 302 302 301 301 303 298 299 298
276 275 274 277 275 276 281 284 284 288 295 287 283 279 276 273 274 274 275 276 280 284 283 284 286 286 285 287 289 292 293 294 296 299 297 298 292 299 301 300 301 298 302 300
274 271 270 276 273 270 273 275 281 284 285 284 284 284 280 277 274 272 272 272 277 280 283 284 285 286 286 288 291 293 295 296 297 300 300 301 306 300 302 303 303 303 302 304
272 273 272 273 274 273 272 271 272 274 278 279 273 275 280 283 279 273 270 271 274 277 278 281 285 286 289 291 293 295 297 296 299 299 301 304 305 305 303 305 305 304 305 305
269 270 270 269 268 271 272 272 271 271 275 276 276 273 274 276 278 276 272 271 273 274 275 277 278 279 281 286 287 287 290 293 292 291 294 298 301 298 296 296 296 298 300 302
266 268 269 268 268 270 272 272 271 271 271 275 278 275 270 274 274 274 274 275 271 271 274 277 279 280 281 283 285 284 288 290 291 295 295 298 297 292 290 291 294 296 297 298
264 264 266 265 265 268 269 267 269 270 270 270 272 275 270 273 272 267 269 271 274 274 274 275 276 278 281 283 284 286 289 291 296 295 293 292 286 289 293 295 296 298 298 296
260 261 265 266 266 267 268 266 269 268 268 267 267 269 270 271 270 269 269 271 271 272 274 276 277 281 282 284 285 287 291 296 296 294 295 288 291 294 297 299 298 298 297 296
261 261 263 263 263 268 267 266 267 268 269 268 268 268 267 267 267 269 271 274 275 276 276 277 276 276 281 283 284 289 292 295 293 289 285 288 294 294 294 293 293 292 291 291
261 261 258 258 261 267 265 262 262 267 269 267 266 266 268 270 269 271 276 277 277 276 277 279 280 283 283 284 286 288 294 292 286 287 287 291 293 292 292 292 290 289 288 287
265 264 264 264 264 265 265 265 265 266 268 269 267 266 263 265 268 270 271 271 272 272 274 275 278 280 282 283 287 292 291 285 286 289 290 291 291 291 291 290 289 287 287 288
267 267 265 265 264 264 267 269 270 270 273 271 268 266 267 268 272 274 273 274 273 273 275 275 276 277 280 282 290 288 285 285 287 288 290 290 289 289 288 288 288 288 288 289
270 269 266 267 268 267 267 268 267 267 268 269 270 271 271 269 271 273 275 277 277 276 276 278 279 280 283 289 287 285 286 287 288 287 286 285 286 286 286 286 286 287 288 288
268 268 269 269 268 269 268 266 265 266 267 268 269 270 270 270 271 274 275 275 274 276 278 279 279 282 286 284 283 283 286 286 285 285 286 285 285 285 286 286 287 287 288 288
266 267 267 267 266 265 264 264 264 266 267 268 269 270 271 270 269 270 272 273 274 275 276 276 278 281 281 281 283 285 284 284 284 284 284 286 286 286 286 286 286 286 286 286
267 266 265 264 263 261 260 261 263 265 266 268 270 269 267 265 265 265 266 268 270 274 276 276 278 280 280 281 282 282 282 283 284 285 287 288 288 288 290 291 292 292 291 288
264 264 265 265 263 260 259 258 257 258 262 264 264 263 261 261 262 263 265 266 268 272 274 278 281 282 281 281 282 282 282 285 287 288 290 293 293 293 291 290 287 282 286 284
248 250 252 251 254 260 262 262 259 255 259 263 269 259 265 268 266 265 267 268 270 272 278 280 281 281 281 282 283 284 285 286 288 291 293 290 283 282 283 282 281 282 284 282
243 245 250 256 257 262 263 259 256 255 256 255 254 254 257 252 253 262 264 264 268 274 277 276 277 277 280 282 283 285 287 288 289 287 286 285 284 284 283 282 281 281 282 283
234 242 255 257 256 256 257 258 258 256 258 259 256 255 255 254 256 259 262 266 269 271 271 271 272 274 277 279 282 283 283 281 280 281 283 284 285 287 287 288 287 286 287 287
230 238 245 257 260 261 260 258 257 257 260 258 262 268 271 268 267 265 267 271 273 272 271 273 276 280 281 281 282 281 281 284 286 288 288 290 291 290 289 290 290 287 286 285
Height
5809 5808 5806 5805 5804 5802 5801 5799 5799 5797 5795 5795 5793 5791 5790 5789 5788 5786 5786 5786 5785 5785 5785 5785 5785 5784 5784 5783 5782 5781 5779 5778 5776 5775 5774 5773 5772 5771 5770 5769 5769 5767 5764 5768
5811 5809 5807 5806 5804 5803 5802 5801 5800 5799 5797 5796 5795 5793 5792 5791 5790 5788 5787 5786 5786 5785 5784 5784 5783 5782 5781 5780 5778 5777 5776 5774 5773 5772 5772 5770 5768 5767 5765 5763 5762 5762 5757 5760
5809 5809 5807 5805 5804 5803 5802 5801 5799 5798 5797 5796 5795 5793 5792 5791 5790 5789 5787 5786 5785 5784 5783 5782 5781 5780 5778 5777 5775 5773 5772 5770 5768 5767 5765 5764 5763 5760 5757 5755 5754 5751 5753 5748
5807 5806 5805 5804 5802 5801 5800 5799 5798 5797 5795 5794 5793 5792 5791 5789 5788 5787 5785 5784 5783 5782 5781 5779 5778 5776 5774 5772 5770 5768 5767 5765 5763 5760 5758 5757 5757 5753 5750 5747 5744 5741 5742 5740
5800 5801 5801 5800 5799 5798 5797 5797 5795 5795 5794 5792 5789 5788 5787 5786 5785 5784 5783 5782 5780 5779 5777 5776 5774 5772 5770 5767 5765 5763 5761 5760 5758 5755 5753 5752 5750 5744 5741 5739 5737 5733 5729 5732
5794 5794 5794 5793 5793 5792 5792 5792 5791 5790 5789 5788 5787 5785 5783 5781 5780 5779 5777 5775 5774 5773 5772 5770 5768 5766 5765 5763 5760 5756 5754 5752 5751 5750 5748 5747 5743 5739 5735 5733 5728 5722 5720 5719
5788 5787 5786 5786 5785 5784 5784 5783 5783 5783 5783 5780 5778 5778 5778 5776 5774 5773 5771 5770 5768 5767 5764 5763 5761 5759 5757 5756 5754 5751 5748 5745 5742 5742 5739 5740 5736 5730 5727 5724 5721 5714 5713 5709
5776 5777 5779 5778 5777 5776 5776 5775 5774 5774 5774 5774 5773 5771 5769 5768 5767 5765 5763 5762 5761 5759 5757 5755 5753 5752 5750 5748 5747 5744 5740 5736 5732 5730 5728 5730 5730 5722 5718 5713 5717 5705 5702 5698
5761 5763 5766 5767 5768 5766 5765 5765 5765 5764 5764 5765 5763 5762 5761 5760 5758 5757 5756 5753 5751 5750 5748 5745 5743 5743 5741 5738 5737 5735 5731 5728 5725 5720 5715 5713 5717 5711 5706 5701 5699 5695 5693 5690
5750 5751 5753 5754 5755 5755 5755 5753 5752 5753 5752 5752 5752 5752 5751 5751 5749 5747 5746 5742 5742 5740 5737 5735 5734 5732 5730 5728 5727 5724 5721 5717 5714 5708 5703 5702 5701 5696 5691 5687 5685 5678 5675 5673
5734 5736 5736 5738 5739 5741 5741 5741 5739 5738 5740 5740 5739 5739 5738 5737 5737 5737 5735 5732 5732 5727 5726 5725 5723 5720 5720 5718 5716 5715 5712 5708 5704 5701 5697 5694 5690 5685 5682 5678 5673 5669 5664 5660
5717 5718 5720 5721 5723 5723 5725 5727 5724 5724 5724 5727 5726 5726 5725 5723 5723 5723 5722 5722 5718 5714 5714 5712 5709 5707 5705 5706 5703 5703 5700 5698 5693 5691 5686 5683 5677 5669 5665 5662 5661 5657 5652 5648
5700 5701 5703 5704 5704 5704 5706 5708 5708 5705 5707 5708 5709 5711 5710 5707 5708 5707 5706 5707 5706 5704 5700 5699 5696 5692 5691 5690 5688 5687 5685 5682 5679 5676 5675 5669 5661 5656 5652 5648 5644 5641 5637 5632
5680 5683 5684 5685 5687 5688 5689 5689 5691 5687 5687 5690 5694 5691 5693 5693 5692 5691 5691 5689 5689 5689 5687 5683 5680 5678 5675 5675 5672 5671 5669 5666 5663 5659 5653 5645 5642 5638 5635 5633 5627 5623 5619 5613
5663 5664 5667 5666 5668 5670 5670 5672 5673 5672 5670 5672 5675 5674 5679 5677 5675 5674 5674 5673 5672 5671 5670 5668 5664 5661 5657 5660 5657 5659 5654 5653 5647 5635 5632 5624 5626 5624 5620 5616 5611 5606 5600 5596
5644 5645 5647 5649 5651 5651 5652 5655 5656 5654 5652 5652 5657 5660 5661 5660 5658 5654 5655 5656 5655 5652 5650 5650 5647 5645 5638 5638 5642 5642 5641 5634 5625 5620 5615 5613 5612 5607 5600 5597 5593 5588 5581 5575
5624 5625 5626 5628 5631 5632 5633 5635 5637 5635 5634 5633 5635 5641 5644 5645 5641 5638 5638 5636 5634 5632 5630 5631 5630 5627 5620 5617 5625 5628 5619 5611 5604 5603 5598 5598 5590 5586 5583 5577 5571 5565 5559 5553
5597 5600 5602 5606 5608 5611 5617 5613 5614 5613 5610 5610 5613 5625 5627 5626 5615 5615 5618 5617 5614 5612 5611 5612 5611 5607 5602 5597 5611 5600 5595 5591 5589 5582 5579 5574 5569 5564 5560 5556 5549 5544 5538 5535
5572 5573 5575 5579 5584 5588 5591 5591 5592 5591 5590 5585 5591 5605 5608 5605 5601 5596 5594 5591 5590 5589 5592 5592 5589 5590 5588 5590 5583 5576 5572 5571 5568 5560 5556 5552 5548 5544 5538 5533 5529 5524 5519 5514
5547 5549 5551 5553 5559 5560 5564 5563 5565 5566 5567 5562 5573 5583 5581 5583 5579 5576 5574 5568 5568 5566 5575 5567 5565 5570 5578 5564 5559 5556 5553 5550 5545 5535 5531 5530 5525 5522 5518 5513 5508 5503 5498 5494
5523 5525 5528 5529 5532 5534 5535 5536 5540 5541 5542 5544 5555 5557 5557 5557 5555 5555 5550 5544 5541 5543 5552 5545 5543 5553 5554 5546 5539 5536 5531 5525 5521 5517 5511 5507 5503 5500 5496 5492 5487 5482 5478 5474
5500 5501 5500 5505 5508 5509 5513 5513 5518 5523 5523 5524 5531 5534 5533 5533 5533 5533 5528 5525 5521 5521 5526 5523 5522 5532 5527 5527 5520 5512 5507 5504 5500 5495 5490 5484 5480 5475 5472 5468 5464 5459 5455 5452
5477 5477 5477 5479 5482 5487 5491 5501 5505 5508 5504 5506 5509 5511 5510 5510 5511 5509 5510 5504 5505 5501 5500 5504 5507 5507 5502 5498 5496 5492 5485 5481 5477 5473 5467 5462 5457 5454 5450 5447 5445 5439 5435 5432
5461 5462 5460 5462 5463 5467 5477 5485 5484 5487 5490 5491 5490 5490 5489 5489 5488 5490 5486 5485 5484 5483 5484 5488 5486 5482 5477 5474 5473 5470 5467 5461 5456 5452 5448 5445 5441 5438 5436 5433 5429 5421 5417 5414
5447 5447 5447 5446 5454 5456 5461 5463 5466 5468 5470 5471 5472 5471 5473 5472 5467 5468 5468 5466 5465 5471 5467 5466 5463 5458 5456 5455 5452 5448 5447 5445 5440 5434 5428 5425 5421 5417 5415 5413 5407 5400 5394 5387
5435 5435 5437 5441 5444 5446 5447 5449 5452 5453 5453 5450 5450 5449 5448 5449 5447 5446 5449 5448 5452 5453 5448 5446 5443 5442 5439 5437 5435 5432 5428 5423 5417 5412 5407 5402 5398 5394 5389 5387 5383 5378 5372 5366
5421 5425 5430 5432 5433 5436 5437 5437 5439 5438 5438 5437 5437 5433 5432 5430 5427 5431 5435 5433 5433 5431 5428 5426 5425 5424 5422 5418 5414 5410 5405 5400 5396 5391 5386 5380 5376 5371 5365 5362 5361 5354 5349 5344